This is the latest recevied weather packets stored in our database for station/object N5SRF. If no packets are shown the sender has not sent any weather packets the latest 10 day(s).
| Time | Temp. | Humidity | Pressure | Rain* | Wind** | Luminosity | Snow |
|---|---|---|---|---|---|---|---|
| 1777684014 | 12.78° C | 99% | 1018.5 hPa | 0 mm | - | 0 W/m² | - |
| 1777683710 | 12.22° C | 99% | 1018.4 hPa | 1.78 mm | - | 0 W/m² | - |
| 1777683407 | 12.22° C | 99% | 1018.5 hPa | 1.78 mm | - | 0 W/m² | - |
| 1777683105 | 12.22° C | 99% | 1018.2 hPa | 0 mm | - | 1 W/m² | - |
| 1777682801 | 12.22° C | 99% | 1018.2 hPa | 0 mm | - | 1 W/m² | - |
| 1777682497 | 12.22° C | 99% | 1018 hPa | 1.27 mm | - | 2 W/m² | - |
| 1777682196 | 12.78° C | 99% | 1018.2 hPa | 1.27 mm | - | 2 W/m² | - |
| 1777681892 | 12.78° C | 99% | 1017.9 hPa | 0 mm | - | 3 W/m² | - |
| 1777681588 | 12.78° C | 99% | 1017.9 hPa | 1.78 mm | - | 3 W/m² | - |
| 1777681286 | 12.78° C | 99% | 1017.8 hPa | 3.05 mm | - | 4 W/m² | - |
| 1777680983 | 12.78° C | 99% | 1017.9 hPa | 3.05 mm | - | 5 W/m² | - |
| 1777680680 | 12.78° C | 99% | 1018 hPa | 3.05 mm | - | 4 W/m² | - |
| 1777680379 | 12.78° C | 99% | 1017.8 hPa | 4.32 mm | - | 9 W/m² | - |
| 1777680076 | 12.78° C | 99% | 1017.8 hPa | 3.05 mm | - | 9 W/m² | - |
| 1777679772 | 12.78° C | 99% | 1017.2 hPa | 1.78 mm | - | 16 W/m² | - |
| 1777679468 | 12.78° C | 99% | 1016.7 hPa | 3.56 mm | - | 16 W/m² | - |
| 1777679163 | 12.78° C | 99% | 1016.7 hPa | 1.78 mm | - | 11 W/m² | - |
| 1777678861 | 12.78° C | 99% | 1017 hPa | 0 mm | - | 7 W/m² | - |
| 1777678559 | 12.78° C | 99% | 1017.1 hPa | 0 mm | - | 6 W/m² | - |
| 1777678256 | 12.78° C | 99% | 1016.8 hPa | 0 mm | - | 7 W/m² | - |
| 1777677952 | 12.78° C | 99% | 1016.4 hPa | 0 mm | - | 14 W/m² | - |
| 1777677649 | 12.78° C | 99% | 1016 hPa | 0 mm | - | 23 W/m² | - |
| 1777677347 | 12.78° C | 99% | 1015.9 hPa | 1.27 mm | - | 36 W/m² | - |
| 1777677045 | 12.78° C | 99% | 1015.9 hPa | 1.27 mm | - | 45 W/m² | - |
| 1777676743 | 12.78° C | 99% | 1015.9 hPa | 0 mm | - | 46 W/m² | - |
* Rain latest hour (hover to see other rain measurements)
** Current wind speed in m/s (hover to see current wind gust speed)